Lake George, NY (12845)

4:06 PM EDT on September 02, 2014 (GMT -0400)
Mohawk Mountain Road, Lake George, NY | Change Station
CLOSE
Current Station
Personal Weather Station
Location: Lake George, NY
Elevation: 942 ft
Nearby Weather Stations

Elev 942 ft 43.39 °N, 73.73 °W | Updated 6 minutes ago

Partly Cloudy
Partly Cloudy
84.4 °F
Feels Like 89 °F
N
7.0
Wind Variable Wind from North

Today
High -- | Low -- °F
--% Chance of Precip.
Yesterday
High -- | Low -- °F
Precip. -- in
6:19 AM 7:28 PM
First Quarter, 54% visible
Pressure 29.77 in
Visibility 10.0 miles
Clouds Few 4700 ft
Heat Index 89 °F
Dew Point 71 °F
Humidity 64%
Rainfall 0.00 in
Snow Depth Not available.
UV 4 out of 12
Pollen 6.80 out of 12
Air Quality Not available.
Flu Activity Not available.
METAR KGFL 021953Z AUTO 18009G16KT 10SM FEW047 28/21 A2978 RMK AO2 SLP080 T02830206

More Conditions Fewer Conditions

Pressure 29.77 in
Visibility 10.0 miles
Clouds Few 4700 ft
Heat Index 89 °F
Dew Point 71 °F
Humidity 64%
Rainfall 0.00 in
Snow Depth Not available.
UV 4 out of 12
Pollen 6.80 out of 12
Air Quality Not available.
Flu Activity Not available.
METAR KGFL 021953Z AUTO 18009G16KT 10SM FEW047 28/21 A2978 RMK AO2 SLP080 T02830206

More Conditions Fewer Conditions

10-Day Weather Forecast

Almanac

Astronomy

Sep. 02, 2014 Rise Set
Actual Time 6:19 AM EDT 7:28 PM EDT
Civil Twilight 5:50 AM EDT 7:57 PM EDT
Nautical Twilight 5:15 AM EDT 8:32 PM EDT
Astronomical Twilight 4:38 AM EDT 9:09 PM EDT
Moon 2:13 PM EDT No Moon Set
Length of Visible Light 14h 07m
Length of Day
13h 08m
Tomorrow will be 2m 52s shorter.
First Quarter, 54% of the Moon is Illuminated
Today
First Quarter
Sep 8
Full
Sep 15
Last Quarter
Sep 24
New
Oct 1
First Quarter

Today's Extremes

State Highs State Lows

Community

WunderPhotos

Upload Photos

1,749,753 photos uploaded!

WunderBlogs® & News

By Dr. Jeff Masters
Director of Meteorology, Weather Underground
By Kari Strenfel
Meteorologist, Weather Underground
By Christopher C. Burt
Weather Historian, Weather Underground
September 2, 2014
September 2, 2014
September 2, 2014

Nearby

Air Quality

  Air Quality AQ Index Pollutant
Tuesday Good
PM2.5
Tuesday Good
OZONE
Wednesday Good
PM2.5

Snow Depth

Station Depth Elevation
No new snow has been reported.

Earthquake Activity

City Distance Mag. Time & Date
No recent earthquake activity has been reported nearby.
Minimum magnitude displayed is 2.5.

Coastal Water Temperatures

Place Temperature
No Stations Reporting

Nearby Weather Stations